Regional Weather Roundup
Issued by NWS Upton, NY

Current Version | Previous Version | Graphics & Text | Print | Product List | Glossary Off
Versions: 1 2 3 4 5 6 7 8 9 10 11 12 13 14 15 16 17 18 19 20 21 22 23 24 25 26 27
000 ASUS41 KOKX 242004 RWROKX REGIONAL WEATHER ROUNDUP NATIONAL WEATHER SERVICE NEW YORK NY 400 PM EDT TUE MAY 24 2016 NOTE: "FAIR" INDICATES FEW OR NO CLOUDS BELOW 12,000 FEET WITH NO SIGNIFICANT WEATHER AND/OR OBSTRUCTIONS TO VISIBILITY. NYZ071-072-176-178-NJZ106-104-242100- NEW YORK CITY METRO AREA CITY SKY/WX TMP DP RH WIND PRES REMARKS CENTRAL PARK CLOUDY 71 51 49 NE7 29.93S LAGUARDIA APRT CLOUDY 71 56 58 N8 29.90S KENNEDY INTL PTSUNNY 74 50 42 N13 29.91S NEWARK/LIBERTY PTSUNNY 77 53 43 N5 29.90S BRNX BOT. GARD N/A 70 52 52 E1 29.93R TETERBORO CLOUDY 74 49 41 VRB3 29.89S $$ NYZ177-179-078>081-242100- LONG ISLAND NEW YORK CITY SKY/WX TMP DP RH WIND PRES REMARKS FARMINGDALE CLOUDY 69 54 58 NE7 29.90R ISLIP CLOUDY 64 59 83 N7 29.90S SHIRLEY CLOUDY 67 57 70 N9 29.91R RIVERHEAD N/A 63 59 88 CALM 29.90S WESTHAMPTON CLOUDY 58 57 97 N7 29.92R EAST HAMPTON CLOUDY 60 56 85 N3 29.89S MONTAUK POINT N/A 59 57 93 NW5 29.92R $$ NYZ052-065-067-242100- HUDSON VALLEY CITY SKY/WX TMP DP RH WIND PRES REMARKS WHITE PLAINS PTSUNNY 67 55 65 NW8 29.91S NEWBURGH PTSUNNY 68 37 32 NE8 29.94R MONTGOMERY CLOUDY 71 55 56 NE5 29.92R POUGHKEEPSIE CLOUDY 74 54 49 N12G17 29.91S ALBANY PTSUNNY 66 54 65 NE7 29.93F $$ NJZ001-105-106-008-010-013-015-019>022-104-242100- NEW JERSEY CITY SKY/WX TMP DP RH WIND PRES REMARKS NEWARK/LIBERTY PTSUNNY 77 53 43 N5 29.90S TETERBORO CLOUDY 74 49 41 VRB3 29.89S CALDWELL CLOUDY 74 53 48 NE6 29.90F MORRISTOWN PTSUNNY 73 55 53 S5 29.91S SOMERVILLE SUNNY 79 53 40 S7 29.87F SUSSEX CLOUDY 73 52 47 E3 29.91R ANDOVER N/A 78 50 37 VRB7 29.89S TRENTON SUNNY 80 51 36 VRB7 29.89F MILLVILLE MOSUNNY 76 53 44 W7G17 29.94F ATLANTIC CITY PTSUNNY 77 53 43 W12G20 29.93F WRIGHTSTOWN NOT AVBL TOMS RIVER MOSUNNY 77 52 41 W8 29.91S BELMAR MOSUNNY 76 52 43 W8 29.92S $$ PAZ047>061-062-071-242100- EASTERN PENNSYLVANIA CITY SKY/WX TMP DP RH WIND PRES REMARKS PHILADELPHIA PTSUNNY 80 46 30 W18 29.90F ALLENTOWN SUNNY 83 42 23 NW14 29.89S SCRANTON MOSUNNY 81 37 20 N16G24 29.91F $$ CTZ002-004>006-009-010-012-RIZ004-006-007-MAZ004-011-015-242100- SOUTHERN NEW ENGLAND IN CT CITY SKY/WX TMP DP RH WIND PRES REMARKS BRADLEY INTL CLOUDY 66 56 70 N8 29.89S HARTFORD CLOUDY 67 56 67 N8 29.89S DANBURY RAIN 63 58 83 N10 29.94R WTRBRY/OXFORD CLOUDY 64 54 68 N7 29.92S BRIDGEPORT CLOUDY 63 58 83 SW6 29.90S MERIDEN CLOUDY 67 56 67 N5 29.90S NEW HAVEN CLOUDY 65 56 72 VRB5 29.90S CHESTER CLOUDY 61 57 88 CALM 29.90S GROTON CLOUDY 62 60 93 NW5 29.89R FOG WILLIMANTIC CLOUDY 66 55 67 NE10 29.90S IN RI CITY SKY/WX TMP DP RH WIND PRES REMARKS PROVIDENCE CLOUDY 59 52 77 NE13 29.90S BLOCK ISLAND LGT RAIN 56 55 97 CALM 29.90S FOG WESTERLY CLOUDY 63 54 72 VRB5 29.89S IN MA CITY SKY/WX TMP DP RH WIND PRES REMARKS BOSTON CLOUDY 56 52 86 NE13 29.93S WORCESTER CLOUDY 57 53 86 N12 29.92S WESTFIELD CLOUDY 64 55 72 NE14 29.90F PROVINCETOWN MOSUNNY 63 54 72 NE9 29.91R NANTUCKET CLOUDY 57 52 83 S16 29.89S $$ ANZ330-335-338-340-345-350-353-355-242100- COASTAL MARINE OBSERVATIONS STATION/POSITION TIME SKY/WX TEMP WIND PRES VSBY WAVE AIR SEA DIR/SP/G HT/PER (UTC) (F) (DEG/KT/KT) (MB) (MI) (FT/S) NY HARB ENTRANCE 1850 61 58 250/ 6/ 6 1012.6 2/ 9 20S FIRE ISLAND 1850 58 54 250/ 6/ 6 1012.5 3/ 9 GREAT SOUTH BAY 1930 63 64 20/ 6/ 10 N/A 23 SSW MONTAUK P 1950 55 54 260/ 4/ 6 1012.2 3/ 8 15 E BARNEGAT LI 1922 56 N/A 3/ 9 HUDSON CANYON 1850 54 54 1013.5 4/ 8 KINGS POINT 1900 65 56 1012.4 EXECUTION ROCKS NOT AVBL CENTRAL LI SOUND 1900 58 160/ 4/ 4 N/A 1 EASTERN LI SOUND 1900 55 52 270/ 6/ 8 N/A ROBBINS REEF 1900 71 310/ 6/ 7 1011.8 $$ >>>>>>>>>>>>>>>>>>>>>>>>>>>> KEY <<<<<<<<<<<<<<<<<<<<<<<<<<< > < > SKY/WX - SKY CONDITION/PRESENT WEATHER < > TMP - TEMPERATURE IN FAHRENHEIT < > DP - DEWPOINT IN FAHRENHEIT < > RH - RELATIVE HUMIDITY IN PERCENT < > WIND - DIRECTION AND SPEED IN MPH < > PRES - MEAN SEA LEVEL PRESSURE IN INCHES OF HG < > WCI - WIND CHILL INDEX < > VSB - VISIBILITY IN MILES < > HX - HEAT INDEX < > TC - TEMPERATURE IN CELSIUS < > VRB - VARIABLE WIND DIRECTION < > < >>>>>>>>>>>>>>>>>>>>>>>>>>>> KEY <<<<<<<<<<<<<<<<<<<<<<<<<<<

USA.gov is the U.S. government's official web portal to all federal, state and local government web resources and services.